軌道要素
Epoch 2013 Sept. 25.0 TT = JDT 2456560.5
T 2013 Oct. 4.84366 TT MPC
q 3.4961079 (2000.0) P Q
z +0.0002621 Peri. 8.24273 -0.53515468 -0.19631395
+/-0.0000205 Node 239.90195 -0.81907194 -0.11741901
e 0.9990838 Incl. 108.25489 -0.20671390 +0.97348529
From 164 observations 2014 Mar. 29-July 18, mean residual 0".5.
|